Location: La Fredeussais
(48.1780°N, 1.3980°W)
Time: 11:15:51
(UTC+00:00)

PRISM - Pass Details

Date: 03 November 2021
Orbit: 561 x 584 km, 98.2° (Epoch: 29 November)

Event Time Altitude Azimuth Distance (km) Brightness Sun altitude
Rises 04:02:40 0° 15° (NNE) 2,789 ? -28.9°
Reaches altitude 10° 04:04:50 10° 18° (NNE) 1,883 ? -28.5°
Enters shadow 04:06:28 23° 22° (NNE) 1,224 ? -28.2°
